Weather in Sitka

United States     57°03′18″N   135°20′34″W
В апреле 2022 года жителям России запретили посещать сайт meteo.paraplan.net по решению Генеральной прокуратуры. Аудитория сайта уменьшилась в 10 раз. Владельцы сайта не видят смысла в поддержке погодного сервера в таких условиях. Сайт будет закрыт в октябре.
temp.,
°C
wind,
m/s
gust,
m/s
humid.,
%
clouds,
%
prec.,
mm/h
press.,
hPa
HPBL,
m
4 october, tue
tue401:00+8e3268100 0.0 101746
04:00+8ene3366100 0.0 101566
07:00+8ene4366100 0.0 101368
10:00+11ene3457100 0.0 1011104
13:00+14e3458100 0.1 1011148
16:00+15ene3349100 0.1 1010160
19:00+11e3381100 1.0 101177
22:00+11e3470100 1.1 101170
5 october, wed
wed501:00+10e4583100 1.1 1012149
04:00+10e4591100 4.2 1013152
07:00+10e4491100 0.1 1014131
10:00+10e4492100 1.1 1016126
13:00+11e3392100 2.2 102093
16:00+11ssw2397100 5.2 1023125
19:00+10e119799 0.3 102614
22:00+10ene2192100 0.3 102714
6 october, thu
thu601:00+11ene1190100 0.0 102815
04:00+11ene219086 0.0 102824
07:00+10e229211 0.0 102815
10:00+13e118593 0.0 102881
13:00+16nw117389 0.0 1028456
16:00+15nw227499 0.0 1027443
19:00+12n119113 0.0 102611
22:00+11nne119182 0.0 102611
7 october, fri
fri701:00+11nne119044 0.0 102610
04:00+10ne119152 0.0 102710
07:00+10wnw118967 0.0 102710
10:00+13nne117354 0.0 1026100
13:00+15wnw225497 0.0 1026311
16:00+15wnw1152100 0.0 1026183
19:00+11n1161100 0.0 102611
22:00+10ne0063100 0.0 102710
8 october, sat
sat801:00+11nne006757 0.0 102710
04:00+10se117383 0.0 102610
07:00+11se007698 0.0 102610
10:00+12sse117591 0.0 102643
13:00+14sw117273 0.0 1025230
16:00+14sw127598 0.0 1023257
19:00+12sse2287100 0.0 102251
22:00